Tracking 30696 objects as of 16-Jun-2025
HD Live streaming from Space Station
objects crossing your sky now

COSMOS 970 DEB

Track COSMOS 970 DEB now!
10-day predictions


NORAD ID: 10885
Int'l Code: 1977-121AG
Perigee: 956.1 km
Apogee: 1,058.9 km
Inclination: 65.8 °
Period: 105.1 minutes
Semi major axis: 7378 km
RCS: 0.0086 m2 (small)
Launch date: December 21, 1977
Source: Commonwealth of Independent States (former USSR) (CIS)
Launch site: TYURATAM MISSILE AND SPACE COMPLEX (TTMTR)

Note: This is SATELLITE DEBRIS
Your satellite tracking list
Your tracking list is empty




NASA's NSSDC Master Catalog

Two Line Element Set (TLE):
1 10885U 77121AG  25166.61875645  .00000588  00000-0  74912-3 0  9999
2 10885  65.7913 241.2410 0069663 216.5672 292.2509 13.69791583357329
Source of the keplerian elements: AFSPC